Time,TemperatureF,DewpointF,PressureIn,WindDirection,WindDirectionDegrees,WindSpeedMPH,WindSpeedGustMPH,Humidity,HourlyPrecipIn,Conditions,Clouds,dailyrainin,SoftwareType,DateUTC
2013-03-06 00:02:00,38.0,27.0,-100.00,NE,46,8.0,17.0,60,0.00,,,-99.99,,2013-03-06 05:02:00,
2013-03-06 00:12:00,37.0,27.0,-100.00,NE,55,7.0,17.0,62,0.00,,,-99.99,,2013-03-06 05:12:00,
2013-03-06 00:22:00,37.0,27.0,-100.00,East,81,7.0,17.0,62,0.00,,,-99.99,,2013-03-06 05:22:00,
2013-03-06 00:32:00,37.0,27.0,-100.00,ENE,63,9.0,17.0,62,0.00,,,-99.99,,2013-03-06 05:32:00,
2013-03-06 00:42:00,37.0,27.0,-100.00,ENE,57,10.0,17.0,62,0.00,,,-99.99,,2013-03-06 05:42:00,
2013-03-06 00:52:00,37.0,27.0,-100.00,ENE,67,8.0,17.0,62,0.00,,,-99.99,,2013-03-06 05:52:00,
2013-03-06 01:02:00,37.0,25.0,-100.00,ENE,59,9.0,17.0,60,0.00,,,-99.99,,2013-03-06 06:02:00,
2013-03-06 01:11:00,37.0,25.0,-100.00,East,83,9.0,17.0,60,0.00,,,-99.99,,2013-03-06 06:11:00,
2013-03-06 01:22:00,36.0,25.0,-100.00,ENE,67,7.0,17.0,62,0.00,,,-99.99,,2013-03-06 06:22:00,
2013-03-06 01:32:00,36.0,28.0,-100.00,ESE,114,9.0,17.0,68,1.14,,,-99.99,,2013-03-06 06:32:00,
2013-03-06 01:42:00,35.0,28.0,-100.00,ESE,105,6.0,17.0,76,2.83,,,-99.99,,2013-03-06 06:42:00,
2013-03-06 01:52:00,33.0,30.0,-100.00,East,88,9.0,17.0,84,2.83,,,-99.99,,2013-03-06 06:52:00,
2013-03-06 02:01:00,32.0,30.0,-100.00,East,98,9.0,17.0,88,1.14,,,-99.99,,2013-03-06 07:01:00,
2013-03-06 02:11:00,33.0,32.0,-100.00,ENE,57,8.0,17.0,90,1.14,,,-99.99,,2013-03-06 07:11:00,
2013-03-06 02:22:00,33.0,30.0,-100.00,NNE,29,8.0,17.0,90,1.14,,,-99.99,,2013-03-06 07:22:00,
2013-03-06 02:32:00,32.0,30.0,-100.00,ENE,70,7.0,17.0,91,6.22,,,-99.99,,2013-03-06 07:32:00,
2013-03-06 02:42:00,32.0,32.0,-100.00,ENE,60,7.0,17.0,93,4.53,,,-99.99,,2013-03-06 07:42:00,
2013-03-06 02:52:00,33.0,32.0,-100.00,ENE,57,6.0,17.0,94,6.22,,,-99.99,,2013-03-06 07:52:00,
2013-03-06 03:01:00,32.0,32.0,-100.00,East,81,5.0,17.0,94,7.36,,,-99.99,,2013-03-06 08:01:00,
2013-03-06 03:11:00,32.0,32.0,-100.00,ESE,107,6.0,17.0,94,6.22,,,-99.99,,2013-03-06 08:11:00,
2013-03-06 03:21:00,32.0,32.0,-100.00,NE,39,4.0,17.0,94,10.79,,,-99.99,,2013-03-06 08:21:00,
2013-03-06 03:32:00,32.0,32.0,-100.00,ENE,67,6.0,17.0,95,18.70,,,-99.99,,2013-03-06 08:32:00,
2013-03-06 03:42:00,33.0,32.0,-100.00,ENE,66,6.0,17.0,97,31.18,,,-99.99,,2013-03-06 08:42:00,
2013-03-06 03:52:00,33.0,32.0,-100.00,East,100,7.0,17.0,97,31.18,,,-99.99,,2013-03-06 08:52:00,
2013-03-06 04:02:00,32.0,32.0,-100.00,ESE,103,7.0,17.0,97,-99.99,,,-99.99,,2013-03-06 09:02:00,
2013-03-06 04:12:00,32.0,32.0,-100.00,NE,55,7.0,17.0,97,-99.99,,,-99.99,,2013-03-06 09:12:00,
2013-03-06 04:21:00,33.0,32.0,-100.00,ENE,66,7.0,17.0,97,24.96,,,-99.99,,2013-03-06 09:21:00,
2013-03-06 04:32:00,32.0,32.0,-100.00,East,93,6.0,17.0,97,17.01,,,-99.99,,2013-03-06 09:32:00,
2013-03-06 04:42:00,33.0,32.0,-100.00,East,87,6.0,17.0,98,15.31,,,-99.99,,2013-03-06 09:42:00,
2013-03-06 04:52:00,33.0,32.0,-100.00,NE,56,8.0,17.0,98,12.48,,,-99.99,,2013-03-06 09:52:00,
2013-03-06 05:02:00,33.0,32.0,-100.00,ENE,63,6.0,17.0,97,15.31,,,-99.99,,2013-03-06 10:02:00,
2013-03-06 05:11:00,33.0,32.0,-100.00,East,93,7.0,17.0,98,9.06,,,-99.99,,2013-03-06 10:11:00,
2013-03-06 05:22:00,34.0,32.0,-100.00,ENE,72,6.0,17.0,98,4.53,,,-99.99,,2013-03-06 10:22:00,
2013-03-06 05:32:00,33.0,32.0,-100.00,ENE,60,6.0,17.0,98,2.83,,,-99.99,,2013-03-06 10:32:00,
2013-03-06 05:42:00,33.0,32.0,-100.00,East,84,7.0,17.0,97,7.36,,,-99.99,,2013-03-06 10:42:00,
2013-03-06 05:52:00,33.0,32.0,-100.00,East,97,6.0,17.0,97,1.14,,,-99.99,,2013-03-06 10:52:00,
2013-03-06 06:02:00,33.0,32.0,-100.00,East,90,6.0,17.0,98,1.14,,,-99.99,,2013-03-06 11:02:00,
2013-03-06 06:11:00,33.0,32.0,-100.00,ENE,63,6.0,17.0,98,4.53,,,-99.99,,2013-03-06 11:11:00,
2013-03-06 06:22:00,33.0,32.0,-100.00,ENE,63,6.0,17.0,98,1.14,,,-99.99,,2013-03-06 11:22:00,
2013-03-06 06:32:00,33.0,32.0,-100.00,ENE,59,6.0,17.0,98,4.53,,,-99.99,,2013-03-06 11:32:00,
2013-03-06 06:42:00,33.0,32.0,-100.00,ENE,73,6.0,17.0,98,1.14,,,-99.99,,2013-03-06 11:42:00,
2013-03-06 06:52:00,33.0,32.0,-100.00,ENE,64,7.0,7.0,98,9.06,,,-99.99,,2013-03-06 11:52:00,
2013-03-06 07:02:00,33.0,32.0,-100.00,ENE,77,6.0,7.0,98,4.53,,,-99.99,,2013-03-06 12:02:00,
2013-03-06 07:12:00,33.0,32.0,-100.00,NE,53,6.0,7.0,98,1.14,,,-99.99,,2013-03-06 12:12:00,
2013-03-06 07:22:00,33.0,32.0,-100.00,ENE,70,6.0,7.0,98,1.14,,,-99.99,,2013-03-06 12:22:00,
2013-03-06 07:33:00,33.0,32.0,-100.00,ENE,57,4.0,7.0,98,4.53,,,-99.99,,2013-03-06 12:33:00,
2013-03-06 07:42:00,33.0,32.0,-100.00,ENE,72,5.0,7.0,98,0.00,,,-99.99,,2013-03-06 12:42:00,
2013-03-06 07:52:00,33.0,32.0,-100.00,ENE,67,3.0,7.0,98,0.00,,,-99.99,,2013-03-06 12:52:00,
2013-03-06 08:02:00,33.0,32.0,-100.00,ENE,64,3.0,7.0,98,0.00,,,-99.99,,2013-03-06 13:02:00,
2013-03-06 08:12:00,33.0,32.0,-100.00,ENE,64,4.0,7.0,98,0.00,,,-99.99,,2013-03-06 13:12:00,
2013-03-06 08:22:00,34.0,32.0,-100.00,ENE,62,4.0,7.0,98,0.00,,,-99.99,,2013-03-06 13:22:00,
2013-03-06 08:32:00,34.0,32.0,-100.00,NE,50,2.0,7.0,98,0.00,,,-99.99,,2013-03-06 13:32:00,
2013-03-06 08:42:00,33.0,32.0,-100.00,ENE,60,4.0,7.0,98,2.83,,,-99.99,,2013-03-06 13:42:00,
2013-03-06 08:52:00,34.0,32.0,-100.00,NE,53,5.0,7.0,98,1.14,,,-99.99,,2013-03-06 13:52:00,
2013-03-06 09:02:00,33.0,32.0,-100.00,ENE,73,5.0,7.0,98,6.22,,,-99.99,,2013-03-06 14:02:00,
2013-03-06 09:11:00,34.0,32.0,-100.00,NE,49,6.0,7.0,98,4.53,,,-99.99,,2013-03-06 14:11:00,
2013-03-06 09:22:00,34.0,32.0,-100.00,ENE,69,6.0,7.0,98,0.00,,,-99.99,,2013-03-06 14:22:00,
2013-03-06 09:32:00,34.0,32.0,-100.00,NE,43,4.0,7.0,98,0.00,,,-99.99,,2013-03-06 14:32:00,
2013-03-06 09:42:00,34.0,32.0,-100.00,NNE,25,3.0,7.0,98,1.14,,,-99.99,,2013-03-06 14:42:00,
2013-03-06 09:52:00,34.0,32.0,-100.00,ENE,59,4.0,7.0,98,0.00,,,-99.99,,2013-03-06 14:52:00,
2013-03-06 10:02:00,34.0,34.0,-100.00,NE,48,4.0,7.0,98,0.00,,,-99.99,,2013-03-06 15:02:00,
2013-03-06 10:12:00,34.0,34.0,-100.00,NE,39,5.0,7.0,98,0.00,,,-99.99,,2013-03-06 15:12:00,
2013-03-06 10:22:00,35.0,34.0,-100.00,NE,39,3.0,7.0,97,0.00,,,-99.99,,2013-03-06 15:22:00,
2013-03-06 10:32:00,36.0,34.0,-100.00,NNE,28,3.0,7.0,97,0.00,,,-99.99,,2013-03-06 15:32:00,
2013-03-06 10:42:00,37.0,36.0,-100.00,NE,50,2.0,7.0,95,0.00,,,-99.99,,2013-03-06 15:42:00,
2013-03-06 10:52:00,38.0,34.0,-100.00,NE,48,2.0,7.0,90,0.00,,,-99.99,,2013-03-06 15:52:00,
2013-03-06 11:02:00,39.0,32.0,-100.00,NE,49,4.0,7.0,76,0.00,,,-99.99,,2013-03-06 16:02:00,
2013-03-06 11:12:00,40.0,32.0,-100.00,NE,38,6.0,7.0,71,0.00,,,-99.99,,2013-03-06 16:12:00,
2013-03-06 11:21:00,41.0,32.0,-100.00,NE,35,4.0,7.0,67,0.00,,,-99.99,,2013-03-06 16:21:00,
2013-03-06 11:32:00,41.0,30.0,-100.00,NE,53,4.0,7.0,63,0.00,,,-99.99,,2013-03-06 16:32:00,
2013-03-06 11:42:00,42.0,30.0,-100.00,ENE,66,6.0,7.0,60,0.00,,,-99.99,,2013-03-06 16:42:00,
2013-03-06 11:52:00,42.0,30.0,-100.00,NE,43,4.0,7.0,59,0.00,,,-99.99,,2013-03-06 16:52:00,
2013-03-06 12:01:00,42.0,30.0,-100.00,NE,56,5.0,7.0,60,0.00,,,-99.99,,2013-03-06 17:01:00,
2013-03-06 12:11:00,43.0,30.0,-100.00,ENE,62,6.0,7.0,58,0.00,,,-99.99,,2013-03-06 17:11:00,
2013-03-06 12:22:00,43.0,30.0,-100.00,ENE,70,4.0,7.0,56,0.00,,,-99.99,,2013-03-06 17:22:00,
2013-03-06 12:32:00,44.0,30.0,-100.00,ENE,67,4.0,7.0,54,0.00,,,-99.99,,2013-03-06 17:32:00,
2013-03-06 12:42:00,44.0,28.0,-100.00,NNW,333,4.0,7.0,53,0.00,,,-99.99,,2013-03-06 17:42:00,
2013-03-06 12:52:00,44.0,28.0,-100.00,ENE,70,5.0,7.0,53,0.00,,,-99.99,,2013-03-06 17:52:00,
2013-03-06 13:02:00,43.0,28.0,-100.00,NE,53,4.0,7.0,55,0.00,,,-99.99,,2013-03-06 18:02:00,
2013-03-06 13:28:00,46.0,28.0,-100.00,NNE,24,3.0,7.0,50,0.00,,,-99.99,,2013-03-06 18:28:00,
2013-03-06 13:42:00,43.0,28.0,-100.00,NE,36,5.0,7.0,54,0.00,,,-99.99,,2013-03-06 18:42:00,
2013-03-06 13:52:00,43.0,28.0,-100.00,NE,36,4.0,7.0,55,0.00,,,-99.99,,2013-03-06 18:52:00,
2013-03-06 14:02:00,43.0,28.0,-100.00,North,5,5.0,7.0,53,0.00,,,-99.99,,2013-03-06 19:02:00,
2013-03-06 14:11:00,43.0,28.0,-100.00,NNE,21,4.0,7.0,54,0.00,,,-99.99,,2013-03-06 19:11:00,
2013-03-06 14:22:00,43.0,28.0,-100.00,NNW,348,5.0,7.0,55,0.00,,,-99.99,,2013-03-06 19:22:00,
2013-03-06 14:32:00,43.0,30.0,-100.00,NNE,32,3.0,7.0,58,0.00,,,-99.99,,2013-03-06 19:32:00,
2013-03-06 14:43:00,43.0,27.0,-100.00,North,354,6.0,7.0,51,0.00,,,-99.99,,2013-03-06 19:43:00,
2013-03-06 14:52:00,43.0,28.0,-100.00,North,8,6.0,7.0,55,0.00,,,-99.99,,2013-03-06 19:52:00,
2013-03-06 15:02:00,43.0,28.0,-100.00,NNW,345,4.0,7.0,54,0.00,,,-99.99,,2013-03-06 20:02:00,
2013-03-06 15:12:00,43.0,28.0,-100.00,NNE,16,6.0,7.0,54,0.00,,,-99.99,,2013-03-06 20:12:00,
2013-03-06 15:22:00,43.0,28.0,-100.00,North,8,5.0,7.0,55,0.00,,,-99.99,,2013-03-06 20:22:00,
2013-03-06 15:32:00,43.0,28.0,-100.00,North,8,4.0,7.0,56,0.00,,,-99.99,,2013-03-06 20:32:00,
2013-03-06 15:42:00,43.0,28.0,-100.00,North,360,4.0,7.0,56,0.00,,,-99.99,,2013-03-06 20:42:00,
2013-03-06 15:52:00,43.0,30.0,-100.00,NNW,327,2.0,7.0,58,0.00,,,-99.99,,2013-03-06 20:52:00,
2013-03-06 16:02:00,43.0,28.0,-100.00,NNW,337,3.0,7.0,54,0.00,,,-99.99,,2013-03-06 21:02:00,
2013-03-06 16:12:00,43.0,28.0,-100.00,North,350,3.0,7.0,55,0.00,,,-99.99,,2013-03-06 21:12:00,
2013-03-06 16:22:00,42.0,27.0,-100.00,NNE,21,3.0,7.0,51,0.00,,,-99.99,,2013-03-06 21:22:00,
2013-03-06 16:32:00,42.0,28.0,-100.00,North,8,4.0,7.0,55,0.00,,,-99.99,,2013-03-06 21:32:00,
2013-03-06 16:42:00,42.0,28.0,-100.00,NNE,16,2.0,7.0,55,0.00,,,-99.99,,2013-03-06 21:42:00,
2013-03-06 16:51:00,42.0,30.0,-100.00,ENE,60,1.0,7.0,59,0.00,,,-99.99,,2013-03-06 21:51:00,
2013-03-06 17:02:00,42.0,30.0,-100.00,NE,43,2.0,7.0,59,0.00,,,-99.99,,2013-03-06 22:02:00,
2013-03-06 17:11:00,42.0,30.0,-100.00,NNE,26,1.0,7.0,59,0.00,,,-99.99,,2013-03-06 22:11:00,
2013-03-06 17:22:00,42.0,28.0,-100.00,NNE,22,2.0,7.0,56,0.00,,,-99.99,,2013-03-06 22:22:00,
2013-03-06 17:32:00,41.0,28.0,-100.00,NNE,31,4.0,7.0,56,0.00,,,-99.99,,2013-03-06 22:32:00,
2013-03-06 17:42:00,41.0,28.0,-100.00,North,11,3.0,7.0,56,0.00,,,-99.99,,2013-03-06 22:42:00,
2013-03-06 17:51:00,42.0,28.0,-100.00,North,11,3.0,7.0,55,0.00,,,-99.99,,2013-03-06 22:51:00,
2013-03-06 18:01:00,41.0,27.0,-100.00,NNE,16,4.0,7.0,56,0.00,,,-99.99,,2013-03-06 23:01:00,
2013-03-06 18:11:00,41.0,28.0,-100.00,NE,45,2.0,7.0,60,0.00,,,-99.99,,2013-03-06 23:11:00,
2013-03-06 18:21:00,40.0,28.0,-100.00,NNE,22,2.0,7.0,59,0.00,,,-99.99,,2013-03-06 23:21:00,
2013-03-06 18:32:00,41.0,28.0,-100.00,NE,39,2.0,7.0,60,0.00,,,-99.99,,2013-03-06 23:32:00,
2013-03-06 18:42:00,40.0,28.0,-100.00,ESE,115,2.0,7.0,63,0.00,,,-99.99,,2013-03-06 23:42:00,
2013-03-06 18:52:00,40.0,28.0,-100.00,North,357,1.0,7.0,60,0.00,,,-99.99,,2013-03-06 23:52:00,
2013-03-06 19:02:00,40.0,28.0,-100.00,NNW,338,1.0,7.0,62,0.00,,,-99.99,,2013-03-07 00:02:00,
2013-03-06 19:11:00,39.0,28.0,-100.00,NW,326,1.0,7.0,64,0.00,,,-99.99,,2013-03-07 00:11:00,
2013-03-06 19:21:00,40.0,30.0,-100.00,NNE,32,1.0,7.0,64,0.00,,,-99.99,,2013-03-07 00:21:00,
2013-03-06 19:32:00,40.0,30.0,-100.00,North,354,1.0,7.0,64,0.00,,,-99.99,,2013-03-07 00:32:00,
2013-03-06 19:42:00,40.0,28.0,-100.00,NNE,25,1.0,7.0,63,0.00,,,-99.99,,2013-03-07 00:42:00,
2013-03-06 19:52:00,40.0,28.0,-100.00,North,358,1.0,7.0,63,0.00,,,-99.99,,2013-03-07 00:52:00,
2013-03-06 20:01:00,39.0,30.0,-100.00,NNW,338,2.0,7.0,68,0.00,,,-99.99,,2013-03-07 01:01:00,
2013-03-06 20:11:00,39.0,30.0,-100.00,NW,313,2.0,7.0,68,0.00,,,-99.99,,2013-03-07 01:11:00,
2013-03-06 20:21:00,38.0,30.0,-100.00,North,350,2.0,7.0,71,0.00,,,-99.99,,2013-03-07 01:21:00,
2013-03-06 20:32:00,39.0,32.0,-100.00,NNW,340,2.0,7.0,72,0.00,,,-99.99,,2013-03-07 01:32:00,
2013-03-06 20:42:00,38.0,30.0,-100.00,NW,316,3.0,7.0,73,0.00,,,-99.99,,2013-03-07 01:42:00,
2013-03-06 20:51:00,37.0,32.0,-100.00,NNW,330,4.0,7.0,77,0.00,,,-99.99,,2013-03-07 01:51:00,
2013-03-06 21:01:00,37.0,32.0,-100.00,NNW,330,4.0,7.0,77,0.00,,,-99.99,,2013-03-07 02:01:00,
2013-03-06 21:11:00,37.0,32.0,-100.00,NW,324,4.0,7.0,78,0.00,,,-99.99,,2013-03-07 02:11:00,
2013-03-06 21:21:00,36.0,30.0,-100.00,NNW,338,3.0,7.0,78,0.00,,,-99.99,,2013-03-07 02:21:00,
2013-03-06 21:32:00,36.0,30.0,-100.00,NNW,328,4.0,7.0,78,0.00,,,-99.99,,2013-03-07 02:32:00,
2013-03-06 21:42:00,36.0,30.0,-100.00,NNW,328,4.0,7.0,78,0.00,,,-99.99,,2013-03-07 02:42:00,
2013-03-06 21:51:00,36.0,30.0,-100.00,NNW,328,4.0,7.0,78,0.00,,,-99.99,,2013-03-07 02:51:00,
2013-03-06 22:02:00,35.0,30.0,-100.00,NNW,337,3.0,7.0,80,0.00,,,-99.99,,2013-03-07 03:02:00,
2013-03-06 22:12:00,35.0,30.0,-100.00,NNW,338,4.0,7.0,80,0.00,,,-99.99,,2013-03-07 03:12:00,
2013-03-06 22:21:00,35.0,30.0,-100.00,NNW,336,4.0,7.0,82,0.00,,,-99.99,,2013-03-07 03:21:00,
2013-03-06 22:32:00,35.0,30.0,-100.00,North,350,3.0,7.0,82,0.00,,,-99.99,,2013-03-07 03:32:00,
2013-03-06 22:42:00,34.0,30.0,-100.00,North,2,1.0,7.0,84,0.00,,,-99.99,,2013-03-07 03:42:00,
2013-03-06 22:52:00,34.0,32.0,-100.00,NW,306,0.0,7.0,85,0.00,,,-99.99,,2013-03-07 03:52:00,
2013-03-06 23:02:00,34.0,32.0,-100.00,NW,324,1.0,7.0,85,0.00,,,-99.99,,2013-03-07 04:02:00,
2013-03-06 23:12:00,34.0,32.0,-100.00,WNW,293,2.0,7.0,86,0.00,,,-99.99,,2013-03-07 04:12:00,
2013-03-06 23:22:00,34.0,32.0,-100.00,WNW,293,2.0,7.0,88,0.00,,,-99.99,,2013-03-07 04:22:00,
2013-03-06 23:32:00,34.0,32.0,-100.00,NW,310,0.0,7.0,88,0.00,,,-99.99,,2013-03-07 04:32:00,
2013-03-06 23:42:00,34.0,32.0,-100.00,WNW,300,1.0,7.0,88,0.00,,,-99.99,,2013-03-07 04:42:00,
2013-03-06 23:52:00,34.0,32.0,-100.00,West,278,1.0,7.0,89,0.00,,,-99.99,,2013-03-07 04:52:00,